Location: Casilda
(33.0440°S, 61.1680°W)
Time: 16:59:35
(UTC-03:00)

ISS - Pass Details

Date: 26 November 2021
Orbit: 417 x 423 km, 51.6° (Epoch: 28 November)

Event Time Altitude Azimuth Distance (km) Brightness Sun altitude
Exits shadow 05:12:58 - 270° (W) 1,750 -1.1 -7.6°
Reaches altitude 10° 05:13:43 10° 263° (W) 1,511 -1.4 -7.5°
Maximum altitude 05:16:16 19° 214° (SW) 1,068 -1.7 -7.0°
Drops below altitude 10° 05:18:50 10° 165° (SSE) 1,521 -0.2 -6.5°
Sets 05:21:22 0° 147° (SSE) 2,392 1.4 -6.1°
